Location: Unspecified
(0.0000°N, 0.0000°E)
Time: 08:29:57
(UTC+00:00)

Explorer 11/Cluster Stage 4 - Pass Details

Date: 18 July 2020
Orbit: 467 x 1259 km, 28.8° (Epoch: 03 August)

Event Time Altitude Azimuth Distance (km) Brightness Sun altitude
Rises 19:15:05 0° 261° (W) 4,168 11.4 -16.0°
Reaches altitude 10° 19:19:11 10° 243° (WSW) 3,231 10.3 -17.0°
Maximum altitude 19:24:19 18° 205° (SSW) 2,669 9.3 -18.2°
Drops below altitude 10° 19:29:19 10° 166° (SSE) 3,135 9.3 -19.3°
Enters shadow 19:29:31 10° 164° (SSE) 3,170 9.3 -19.4°
Sets 19:33:15 0° 147° (SSE) 3,996 - -20.2°
